Regional Weather Roundup
Issued by NWS

Home | Current Version | Previous Version | Graphics & Text | Print | Product List | Glossary On
Versions: 1 2 3 4 5 6 7 8 9 10 11 12 13 14 15 16 17 18 19 20 21 22 23 24 25 26 27
000
ASUS45 KCYS 260310
RWRWY

WYOMING REGIONAL WEATHER ROUNDUP
NATIONAL WEATHER SERVICE CHEYENNE WY
900 PM MDT TUE APR 25 2017

NOTE:  "FAIR" INDICATES FEW OR NO CLOUDS BELOW 12,000 FEET
WITH NO SIGNIFICANT WEATHER AND/OR OBSTRUCTIONS TO VISIBILITY.

WYZ001-260400-
YELLOWSTONE NATIONAL PARK

CITY           SKY/WX    TMP DP  RH WIND       PRES   REMARKS
LK YELLOWSTONE   N/A     30  28  92 CALM      29.86R
W YELLOWSTONE  NOT AVBL

$$
WYZ002>013-054>058-071-098>099-260400-
NORTHERN WYOMING

CITY           SKY/WX    TMP DP  RH WIND       PRES   REMARKS
JACKSON        MOCLDY    36  36 100 CALM      29.86R
CODY           CLOUDY    37  33  85 N3        29.86R
GREYBULL       FAIR      42  30  62 W12       29.81R
WORLAND        FAIR      39  35  86 CALM      29.82R
SHERIDAN       CLOUDY    33  29  85 NE3       29.89R
BUFFALO        NOT AVBL
GILLETTE       CLOUDY    26  26 100 NW5       29.88R WCI  20
HULETT         FLURRIES  27  25  93 CALM      29.89R
NEWCASTLE      CLOUDY    28  23  80 N13       29.86R HAZE    WCI  18

$$
WYZ014>020-022>026-101>103-260400-
CENTRAL WYOMING

CITY           SKY/WX    TMP DP  RH WIND       PRES   REMARKS
BIG PINEY      MOCLDY    34  30  85 NE7       29.87R WCI  28
PINEDALE       LGT SNOW  34  32  93 NW15      29.87S WCI  24
DUBOIS         FOG       32  30  93 CALM      29.84S VSB 1/2
LANDER         FAIR      36  28  73 SW6       29.83R WCI  31
RIVERTON       FAIR      39  31  72 SE5       29.85R
CASPER         CLOUDY    29  25  85 CALM      29.87R
DOUGLAS        CLOUDY    30  24  78 N15       29.88R WCI  19

$$
WYZ021-027>030-104>119-260400-
SOUTHERN WYOMING

CITY           SKY/WX    TMP DP  RH WIND       PRES   REMARKS
EVANSTON       MOCLDY    35  28  75 W10       29.91S WCI  27
KEMMERER         N/A     34  32  93 CALM      29.89S
FORT BRIDGER   MOCLDY    36  32  85 W10       29.92R WCI  28
ROCK SPRINGS   FAIR      35  27  72 CALM      29.87R
DIXON            N/A     38  27  64 N5        29.87R WCI  35
RAWLINS        CLOUDY    32  26  78 E3        29.86R
SARATOGA       CLOUDY    32  27  80 NW5       29.86R WCI  27
LARAMIE        FAIR      28  21  75 N15       29.80R WCI  16
CHEYENNE       CLOUDY    29  22  75 N18G28    29.80R WCI  16
TORRINGTON     CLOUDY    32  27  81 NE9       29.84R WCI  24
PINE BLUFFS    CLOUDY    32  30  93 N24G30    29.82R WCI  19

$$




USA.gov is the U.S. government's official web portal to all federal, state and local government web resources and services.